Location: Moulis
(42.9609°N, 1.0909°E)
Time: 12:06:42
(UTC+00:00)

Okean 1 - Visible Passes

Search period start: 15 March 2026 00:00
Search period end: 25 March 2026 00:00
Orbit: 461 x 480 km, 82.5° (Epoch: 14 March)

Date Brightness Start Highest point End Pass type
(mag) Time Alt. Az. Time Alt. Az. Time Alt. Az.
16 Mar 4.2 05:31:40 10° S 05:35:09 49° E 05:38:37 10° NNE visible
17 Mar 5.5 05:03:02 10° SSE 05:06:04 26° E 05:09:06 10° NNE visible
18 Mar 6.3 04:34:58 10° ESE 04:37:02 15° E 04:39:06 10° NE visible
20 Mar 3.4 05:09:26 10° S 05:12:59 68° E 05:16:32 10° NNE visible
21 Mar 4.8 04:40:31 10° SSE 04:43:46 34° E 04:47:02 10° NNE visible
22 Mar 5.9 04:12:02 10° SE 04:14:36 19° E 04:17:11 10° NE visible
23 Mar 6.5 03:44:45 10° E 03:45:29 10° E 03:46:12 10° ENE visible
23 Mar 3.3 05:16:22 10° SSW 05:19:47 44° W 05:23:13 10° N visible
24 Mar 2.9 04:46:50 10° S 04:50:24 89° W 04:53:58 10° N visible
